This demonstration page uses our WeatherBlox Daily Observations layout. Learn more.

39.92423, -83.80882

Hourly Observations for May 23, 2016

Temp ( °F °C ) Dew Point ( °F °C ) Humidity (%) Winds ( mph kmh ) Pressure ( in mb ) Visibility ( mi km ) Precip ( " mm )
12:56 am 00:56 Clear 53 11.6 45 7.2 75 75 NE 5 7 30.03 1017 10 16.0934 0 0
1:56 am 01:56 Clear 51 10.5 44 6.6 77 77 NNE 6 9 30.02 1017 10 16.0934 0 0
2:56 am 02:56 Clear 46 7.7 43 6.1 90 90 ENE 5 7 30.02 1017 10 16.0934 0 0
3:56 am 03:56 Clear 46 7.7 40 4.4 80 80 NE 7 11 30.01 1016 10 16.0934 0 0
4:56 am 04:56 Clear 47 8.3 40 4.4 77 77 Calm 30.02 1017 10 16.0934 0 0
5:56 am 05:56 Clear 47 8.3 40 4.4 77 77 Calm 30.03 1017 10 16.0934 0 0
6:56 am 06:56 Sunny 44 6.6 42 5.5 93 93 N 3 6 30.06 1018 10 16.0934 0 0
7:56 am 07:56 Sunny 52 11.1 44 6.6 74 74 Calm 30.09 1019 10 16.0934 0 0
8:56 am 08:56 Sunny 58 14.4 47 8.3 67 67 Calm 30.11 1020 10 16.0934 0 0
9:56 am 09:56 Sunny 63 17.2 47 8.3 56 56 Calm 30.11 1020 10 16.0934 0 0
10:56 am 10:56 Sunny 67 19.4 49 9.4 53 53 VRB 3 6 30.1 1019 10 16.0934 0 0
11:56 am 11:56 Sunny 70 21.1 49 9.4 47 47 Calm 30.09 1019 10 16.0934 0 0
12:56 pm 12:56 Sunny 73 22.7 49 9.4 43 43 VRB 3 6 30.08 1019 10 16.0934 0 0
1:56 pm 13:56 Sunny 74 23.3 50 10 43 43 E 10 17 30.06 1018 10 16.0934 0 0
2:56 pm 14:56 Mostly Sunny 76 24.4 48 8.8 37 37 E 10 17 30.05 1018 10 16.0934 0 0
3:56 pm 15:56 Sunny 77 25 47 8.3 35 35 NE 7 11 30.03 1017 10 16.0934 0 0
4:56 pm 16:56 Sunny 78 25.5 47 8.3 34 34 VRB 3 6 30.01 1016 10 16.0934 0 0
5:56 pm 17:56 Sunny 77 25 46 7.7 33 33 Calm 30.01 1016 10 16.0934 0 0
6:56 pm 18:56 Sunny 75 23.8 50 10 42 42 ENE 5 7 30.01 1016 10 16.0934 0 0
7:56 pm 19:56 Sunny 74 23.3 49 9.4 41 41 SE 5 7 30.01 1016 10 16.0934 0 0
8:56 pm 20:56 Clear 68 20 49 9.4 51 51 Calm 30.02 1017 10 16.0934 0 0
9:56 pm 21:56 Clear 66 18.8 50 10 57 57 Calm 30.03 1017 10 16.0934 0 0
10:56 pm 22:56 Clear 64 17.7 50 10 61 61 SE 3 6 30.04 1017 10 16.0934 0 0
11:56 pm 23:56 Clear 60 15.5 53 11.6 78 78 Calm 30.04 1017 10 16.0934 0 0

Powered by AerisWeather